Hourly Data Report for January 19, 2017

All times are specified in Local Standard Time (LST). Add 1 hour to adjust for Daylight Saving Time where and when it is observed.

WINNIPEG A CS
MANITOBA

49°55'00.000" N
97°14'58.000" W
238.70 m
502S001
71849
XWG

Download Data

Hourly Data (January 2017)
Hourly Data Report for January 19, 2017
TIME Temp Definition
°C
Dew Point Definition
°C
Rel Hum Definition
%
Wind Dir Definition
10's deg

Wind Spd Definition
km/h
Visibility Definition
km
Stn Press Definition
kPa
Hmdx Definition


Wind Chill Definition


Weather Definition


00:00 -2.5 -4.7 85 18 21   97.18   -9 LegendNANA
01:00 -2.9 -4.8 87 18 28   97.13   -10 LegendNANA
02:00 -3.3 -5.3 86 18 30   97.12   -11 LegendNANA
03:00 -3.8 -5.8 86 17 23   97.17   -11 LegendNANA
04:00 -3.9 -5.9 86 17 20   97.19   -10 LegendNANA
05:00 -4.4 -6.1 88 17 25   97.14   -12 LegendNANA
06:00 -4.1 -6.2 85 17 28   97.13   -12 LegendNANA
07:00 -4.3 -6.4 85 17 31   97.10   -12 LegendNANA
08:00 -4.3 -6.6 84 17 30   97.10   -12 LegendNANA
09:00 -4.3 -6.5 85 17 28   97.07   -12 LegendNANA
10:00 -3.0 -5.9 80 18 29   97.08   -10 LegendNANA
11:00 -3.1 -5.4 84 19 25   97.11   -10 LegendNANA
12:00 -2.8 -4.9 85 18 26   97.07   -10 LegendNANA
13:00 -2.7 -4.8 85 18 26   97.08   -10 LegendNANA
14:00 -2.3 -4.2 86 17 33   97.06   -10 LegendNANA
15:00 -2.3 -4.3 87 17 28   97.08   -9 LegendNANA
16:00 -2.4 -4.2 87 17 28   97.10   -9 LegendNANA
17:00 -2.6 -3.9 91 17 28   97.10   -10 LegendNANA
18:00 -2.7 -3.8 92 17 29   97.10   -10 LegendNANA
19:00 -3.0 -3.9 94 17 27   97.10   -10 LegendNANA
20:00 -3.6 -4.2 95 18 22   97.12   -10 LegendNANA
21:00 -4.1 -4.5 97 18 25   97.11   -11 LegendNANA
22:00 -2.8 -2.9 99 17 27   97.06   -10 LegendNANA
23:00 -1.8 -2.0 99 18 27   97.07   -8 LegendNANA

Notes on Data Quality.

Legend

  • E = Estimated
  • M = Missing
  • NA = Not Available
Date modified: